Wind_Speed
12 12 12 11 10 9 8 7 5 3 2 2 3 4 5 6 7 8 8 8 8 8 8 8 8 8 8 8 9 10 10 11 11 12 11 11 11 10 10 10 9 9 7
13 13 13 13 12 11 9 7 5 4 1 1 2 3 4 5 6 7 7 7 7 7 7 7 7 8 8 8 8 9 10 11 11 11 12 11 12 11 11 11 11 10 9
14 14 14 14 14 12 11 9 7 5 4 3 2 2 3 5 5 6 7 6 6 6 6 6 7 7 7 8 7 8 9 10 10 11 12 12 12 12 12 12 12 11 10
15 15 15 15 15 14 13 11 9 8 6 5 4 4 5 5 6 6 6 6 6 6 6 6 6 7 7 7 7 7 8 9 9 10 10 11 11 12 13 12 12 12 10
15 15 15 15 16 15 14 13 11 10 9 7 7 6 6 6 6 6 6 6 6 6 5 6 6 6 6 6 6 6 7 8 9 9 10 10 11 12 13 13 13 12 11
15 16 16 16 16 15 15 14 13 12 11 10 9 8 7 7 7 6 6 5 5 5 5 5 5 5 5 5 6 6 6 6 8 9 10 11 11 12 12 13 13 13 12
15 15 16 16 16 16 15 15 14 13 13 12 11 10 10 8 7 7 6 6 5 5 5 5 5 5 5 5 5 5 5 5 7 8 10 11 11 12 12 12 12 13 14
15 15 16 16 16 16 16 15 15 14 13 13 12 11 11 9 8 7 6 6 5 6 6 5 5 5 4 4 4 4 5 6 7 9 9 10 10 12 12 12 12 13 14
14 15 16 16 16 16 16 15 15 15 14 14 13 12 11 10 8 8 7 7 6 6 5 5 4 4 4 4 4 4 5 7 7 8 9 9 9 10 10 11 11 12 12
14 14 15 16 16 16 16 15 15 15 14 14 13 13 12 10 9 8 8 7 7 6 5 4 4 3 3 3 3 3 4 6 6 7 8 9 10 10 9 9 10 11 12
13 13 14 14 15 15 15 15 15 14 14 13 13 12 12 11 10 9 8 7 6 6 5 5 4 3 3 2 2 2 3 5 6 7 7 8 9 10 10 9 9 11 12
11 12 13 14 14 14 14 14 14 14 13 13 13 12 12 11 10 9 8 7 7 6 5 4 3 2 2 1 1 1 2 3 4 5 6 7 8 9 10 10 10 12 13
10 11 12 12 13 13 14 14 14 14 13 13 12 12 12 11 10 8 8 7 6 5 4 4 2 1 1 0 1 2 2 2 4 5 5 6 7 8 10 11 12 12 14
9 10 10 11 12 12 12 13 13 13 13 12 12 11 11 11 10 9 8 7 6 5 5 4 3 2 1 1 2 3 4 4 5 5 6 6 7 8 10 11 12 13 15
8 9 9 10 11 11 11 11 11 12 12 12 11 11 10 9 9 8 8 7 6 6 6 5 4 3 3 2 3 4 5 5 6 6 7 8 8 10 11 12 13 13 15
7 8 8 9 9 10 10 10 10 10 11 11 10 10 9 9 8 8 7 7 8 8 7 6 6 5 5 5 5 6 6 7 7 8 8 9 10 11 12 13 14 15 16
5 6 7 7 8 8 8 9 9 9 10 10 9 9 8 8 8 8 8 8 8 8 8 7 7 7 7 7 7 8 8 9 9 10 11 11 13 14 15 16 17 18 19
3 4 5 5 6 6 6 7 8 8 9 9 10 9 9 8 8 8 8 9 9 9 9 9 9 8 8 9 9 10 10 11 12 13 13 15 16 17 18 19 20 21 22
2 3 4 4 4 5 5 6 7 8 8 9 10 10 9 9 9 10 10 10 10 11 11 11 11 10 10 10 11 11 12 13 14 15 16 17 18 19 19 21 22 23 24
2 2 3 4 3 4 4 5 6 7 8 9 9 10 10 10 11 11 12 12 12 12 12 12 13 13 13 13 13 13 14 15 17 18 19 20 21 22 23 24 25 25 26
4 4 3 4 4 5 5 6 7 8 8 9 10 11 12 12 13 13 14 14 14 14 14 14 15 15 15 15 16 16 17 17 19 20 22 23 24 25 27 28 28 29 30
6 6 6 5 6 6 7 7 8 9 10 11 12 12 13 14 14 15 16 15 15 16 16 17 17 18 18 18 19 20 20 21 22 23 25 27 28 29 31 32 33 33 34
9 8 8 8 8 8 9 9 10 11 11 12 13 14 14 15 16 17 18 18 18 18 18 19 20 20 21 22 22 23 24 25 27 28 29 30 32 33 35 36 37 37 38
11 11 10 10 10 10 11 11 12 13 13 14 14 15 16 17 18 19 19 20 20 20 21 22 23 23 24 25 26 26 28 29 31 33 34 35 36 38 39 40 40 41 42
13 13 12 12 12 13 13 13 14 14 15 16 17 17 18 19 20 21 22 22 22 23 24 25 26 27 27 28 28 30 32 33 35 37 38 39 40 41 42 43 44 45 46
15 15 14 15 15 15 15 16 16 17 17 18 19 20 21 22 23 23 24 24 25 26 27 28 29 30 30 31 32 35 36 37 38 40 41 42 43 45 44 45 46 48 50
Wind_Direction
14 14 13 12 9 5 1 354 349 340 297 244 227 216 213 211 205 203 202 204 206 206 205 211 213 215 218 216 215 218 216 215 218 215 214 217 217 213 209 208 207 201 194
24 24 23 22 19 16 14 15 17 19 26 187 196 197 202 199 193 192 193 196 200 201 202 204 207 209 210 210 214 216 215 218 219 218 218 220 216 212 208 206 203 197 194
31 30 29 28 27 27 28 32 38 45 60 87 118 149 161 168 177 179 180 184 186 189 193 193 195 200 204 206 211 214 214 216 218 218 222 219 213 210 206 205 203 200 198
35 34 33 33 33 35 39 43 48 55 66 78 93 115 134 147 160 163 162 167 170 177 184 188 190 193 198 205 207 210 212 213 215 212 214 211 208 206 205 206 203 201 204
38 38 37 37 38 40 44 48 54 59 65 75 89 103 115 128 140 146 151 156 159 163 172 182 180 183 190 196 198 200 204 211 211 210 209 207 203 204 204 206 208 205 207
42 42 41 41 42 44 47 52 56 60 65 74 84 95 102 112 122 129 137 143 150 153 159 167 169 172 178 193 194 194 198 206 201 202 199 197 196 201 205 207 208 212 217
43 44 44 45 47 49 53 57 59 62 67 72 80 88 93 100 109 116 119 125 137 150 157 160 161 164 174 185 181 188 187 182 187 190 192 194 198 202 204 207 213 219 223
45 46 46 47 49 51 55 59 60 62 65 70 77 83 84 88 96 101 107 111 122 137 147 154 156 162 159 163 170 173 183 179 179 186 191 194 203 206 207 214 220 223 225
48 49 49 50 51 53 57 59 60 62 67 70 74 80 83 85 89 93 98 99 101 113 122 135 140 147 152 152 163 173 171 178 184 190 194 198 201 203 213 216 221 223 222
50 51 51 52 52 54 57 59 61 64 68 71 74 76 80 83 87 90 92 94 94 97 103 110 119 121 133 152 160 162 177 184 190 196 200 203 207 210 214 219 221 222 221
50 52 51 53 53 54 57 59 61 64 67 70 71 72 75 79 84 85 86 87 89 93 98 104 106 106 110 129 151 158 174 187 201 207 211 211 214 217 220 222 224 225 225
51 51 52 54 54 54 56 58 60 62 64 65 66 67 69 72 77 77 77 79 81 81 82 86 97 103 97 113 155 156 175 196 198 207 219 226 224 224 227 228 230 230 230
50 51 51 54 55 57 57 58 59 59 60 62 64 64 65 66 67 66 65 66 67 66 62 56 62 86 102 176 239 232 222 225 227 229 233 240 235 234 239 240 239 240 239
48 49 50 52 54 56 57 57 58 57 57 57 58 60 61 59 56 54 52 53 51 45 37 34 35 23 343 290 265 252 246 247 247 246 249 253 249 247 247 248 249 249 249
47 49 51 53 53 55 56 55 54 52 50 51 51 52 52 50 46 43 40 35 27 23 19 12 3 353 334 308 287 275 266 262 260 260 263 262 259 256 255 255 256 255 256
47 48 49 50 50 51 51 50 49 47 45 45 44 43 42 40 36 32 29 23 17 12 5 359 350 338 321 303 294 286 278 271 269 269 271 269 267 265 264 264 263 261 262
47 46 45 48 48 45 43 41 42 42 40 39 36 32 28 24 20 16 12 8 3 358 352 347 340 328 315 304 295 289 283 275 271 271 274 274 273 271 270 270 268 268 266
37 35 32 34 37 35 34 32 30 30 29 29 26 22 18 14 9 4 360 355 351 345 339 335 332 325 314 304 295 288 283 279 275 274 276 277 277 276 274 273 271 271 270
4 11 12 15 19 20 19 18 17 15 14 13 11 10 7 2 359 355 352 349 344 339 335 330 327 321 315 308 300 291 284 281 277 275 274 277 278 278 278 277 274 273 271
295 331 348 352 350 354 356 358 0 359 358 356 355 354 353 350 346 343 341 339 335 332 329 325 321 317 312 308 305 298 291 286 282 279 277 278 278 279 280 279 278 276 274
269 285 304 319 324 327 333 337 341 341 340 340 339 340 340 338 337 334 332 329 327 325 321 317 315 312 308 305 302 299 293 289 286 284 283 283 282 281 280 279 279 279 276
263 274 283 293 304 309 315 320 324 326 327 328 329 329 330 330 330 329 327 323 320 319 317 313 311 308 305 301 299 296 292 290 288 286 286 285 284 283 283 281 281 280 277
259 268 276 283 292 298 302 308 312 315 317 319 320 321 323 324 323 322 320 317 314 313 312 311 308 305 303 300 298 296 294 292 290 289 288 287 286 285 284 283 282 280 278
258 265 272 278 285 292 297 301 304 307 309 312 314 316 316 317 317 318 317 314 311 310 310 308 307 304 301 300 298 297 296 294 293 291 289 288 287 286 286 284 282 280 279
260 266 272 277 282 287 292 296 299 303 306 307 308 310 311 313 314 315 314 312 311 310 308 306 305 303 302 301 300 300 297 295 293 292 291 290 288 288 287 285 284 282 281
261 267 272 277 281 284 288 291 295 298 301 303 305 307 308 309 310 311 311 310 309 308 307 305 304 304 302 301 300 301 299 297 296 294 292 291 290 289 287 285 283 282 281
Height
5867 5864 5861 5859 5857 5855 5853 5851 5850 5849 5849 5849 5849 5850 5851 5852 5854 5855 5857 5859 5860 5862 5863 5865 5866 5868 5869 5870 5872 5873 5874 5875 5877 5878 5879 5881 5882 5884 5886 5887 5889 5890 5891
5867 5864 5862 5859 5857 5854 5852 5851 5850 5849 5849 5848 5849 5849 5850 5851 5853 5854 5856 5858 5860 5861 5863 5864 5866 5867 5868 5869 5870 5872 5873 5874 5875 5876 5877 5878 5880 5882 5884 5886 5888 5890 5891
5868 5865 5863 5860 5857 5855 5853 5851 5850 5849 5848 5848 5848 5849 5850 5851 5853 5854 5856 5857 5859 5861 5862 5864 5865 5866 5867 5868 5869 5871 5872 5872 5873 5874 5874 5875 5876 5879 5882 5884 5887 5889 5891
5869 5866 5864 5861 5858 5856 5854 5852 5851 5850 5849 5849 5849 5850 5851 5852 5853 5854 5856 5857 5859 5860 5862 5863 5864 5865 5866 5868 5869 5869 5870 5871 5871 5872 5871 5872 5873 5876 5880 5883 5886 5888 5890
5870 5868 5865 5863 5860 5858 5856 5854 5852 5851 5851 5850 5850 5851 5852 5853 5854 5855 5857 5858 5859 5860 5861 5863 5864 5865 5866 5867 5868 5869 5869 5869 5870 5870 5870 5871 5873 5876 5879 5882 5885 5887 5889
5872 5870 5867 5865 5862 5860 5858 5856 5854 5853 5852 5852 5852 5852 5853 5854 5855 5856 5857 5858 5860 5861 5862 5863 5864 5865 5866 5866 5867 5868 5868 5868 5867 5867 5868 5871 5873 5876 5879 5881 5884 5886 5888
5874 5872 5869 5867 5864 5862 5860 5859 5857 5856 5855 5854 5854 5854 5855 5855 5856 5857 5858 5859 5860 5861 5862 5863 5864 5864 5865 5866 5866 5867 5867 5867 5867 5867 5869 5871 5874 5876 5879 5881 5882 5884 5885
5876 5874 5871 5869 5867 5865 5863 5861 5860 5859 5858 5857 5857 5857 5857 5858 5858 5859 5860 5860 5861 5862 5862 5863 5864 5864 5865 5866 5866 5867 5867 5868 5868 5869 5870 5872 5874 5876 5878 5879 5880 5881 5881
5878 5876 5874 5871 5869 5867 5866 5864 5863 5861 5861 5860 5860 5860 5860 5860 5860 5861 5861 5862 5862 5863 5863 5864 5864 5865 5865 5866 5866 5867 5867 5868 5869 5870 5871 5872 5874 5876 5877 5878 5878 5877 5878
5880 5878 5876 5874 5872 5870 5868 5867 5866 5865 5864 5863 5863 5862 5863 5862 5863 5863 5863 5863 5863 5864 5864 5864 5865 5865 5865 5866 5866 5867 5867 5868 5869 5870 5871 5872 5874 5875 5875 5876 5876 5876 5876
5882 5880 5878 5876 5875 5873 5871 5870 5869 5868 5867 5866 5866 5865 5865 5865 5865 5865 5865 5865 5865 5865 5865 5865 5865 5866 5866 5866 5866 5867 5868 5868 5869 5870 5871 5872 5873 5873 5874 5875 5875 5875 5876
5884 5882 5880 5879 5877 5875 5874 5872 5871 5870 5870 5869 5868 5868 5867 5867 5867 5866 5866 5866 5866 5866 5866 5866 5866 5866 5866 5866 5867 5867 5867 5868 5868 5869 5870 5871 5872 5872 5873 5874 5874 5875 5876
5886 5884 5882 5881 5879 5878 5876 5875 5874 5873 5872 5871 5870 5870 5869 5869 5868 5868 5868 5868 5868 5868 5867 5867 5867 5867 5866 5866 5866 5867 5867 5867 5868 5868 5869 5869 5870 5871 5872 5872 5873 5873 5874
5887 5886 5884 5883 5881 5880 5878 5877 5876 5875 5874 5873 5872 5872 5871 5871 5870 5870 5869 5869 5868 5868 5867 5867 5866 5866 5866 5865 5865 5865 5866 5866 5867 5867 5868 5868 5868 5869 5870 5870 5871 5871 5872
5888 5887 5886 5884 5883 5882 5881 5879 5878 5877 5876 5875 5874 5874 5873 5872 5871 5871 5870 5869 5869 5868 5867 5866 5865 5865 5864 5864 5864 5864 5864 5864 5865 5865 5866 5866 5866 5867 5867 5867 5868 5868 5868
5889 5888 5887 5886 5885 5884 5883 5881 5880 5879 5878 5877 5876 5875 5874 5873 5872 5871 5870 5869 5868 5867 5866 5865 5864 5863 5862 5862 5862 5862 5862 5862 5863 5863 5863 5864 5864 5864 5864 5864 5864 5865 5864
5890 5889 5888 5887 5886 5885 5884 5883 5882 5881 5879 5878 5877 5876 5875 5874 5872 5871 5870 5869 5868 5866 5865 5864 5862 5861 5860 5859 5859 5859 5859 5859 5860 5860 5860 5860 5861 5860 5860 5860 5860 5860 5860
5891 5890 5889 5888 5887 5886 5885 5884 5883 5882 5880 5879 5878 5876 5875 5874 5872 5871 5869 5868 5866 5865 5863 5862 5860 5859 5858 5857 5856 5856 5856 5856 5856 5857 5857 5856 5856 5856 5856 5855 5855 5855 5855
5890 5890 5889 5888 5887 5887 5886 5885 5883 5882 5881 5880 5878 5877 5875 5874 5872 5871 5869 5867 5865 5863 5861 5859 5858 5856 5855 5854 5853 5853 5852 5852 5852 5852 5852 5852 5851 5851 5850 5850 5849 5848 5848
5890 5889 5889 5888 5887 5887 5886 5885 5883 5882 5881 5880 5878 5876 5875 5873 5871 5870 5868 5866 5864 5861 5859 5857 5855 5854 5852 5851 5850 5849 5849 5848 5848 5847 5847 5846 5846 5845 5844 5843 5842 5841 5840
5889 5889 5888 5887 5886 5886 5885 5884 5883 5882 5880 5879 5877 5875 5874 5872 5870 5868 5866 5864 5861 5859 5857 5855 5853 5851 5849 5848 5847 5845 5844 5843 5842 5842 5841 5840 5839 5838 5836 5835 5834 5832 5831
5887 5887 5887 5886 5885 5884 5883 5882 5881 5880 5879 5877 5876 5874 5872 5870 5868 5866 5863 5861 5859 5856 5854 5852 5850 5848 5846 5844 5842 5840 5839 5838 5837 5836 5834 5833 5831 5829 5827 5825 5824 5822 5821
5885 5885 5884 5884 5883 5882 5881 5880 5879 5878 5876 5875 5873 5872 5870 5867 5865 5863 5860 5858 5855 5853 5850 5848 5846 5843 5841 5839 5837 5835 5833 5831 5829 5828 5826 5824 5821 5819 5817 5814 5812 5810 5808
5882 5882 5881 5881 5881 5880 5879 5878 5876 5875 5874 5872 5870 5868 5867 5864 5862 5859 5856 5854 5851 5849 5846 5843 5841 5838 5835 5833 5830 5829 5826 5824 5821 5818 5816 5814 5811 5808 5805 5802 5799 5797 5795
5879 5878 5878 5878 5877 5877 5875 5874 5873 5872 5870 5868 5866 5864 5862 5860 5858 5855 5852 5849 5846 5844 5841 5838 5835 5831 5828 5826 5823 5821 5818 5815 5812 5808 5804 5801 5798 5795 5792 5788 5785 5782 5780
5875 5875 5874 5874 5873 5872 5871 5870 5869 5867 5866 5864 5862 5860 5858 5855 5853 5850 5847 5844 5841 5838 5835 5831 5828 5824 5821 5817 5814 5811 5808 5804 5801 5797 5792 5788 5785 5781 5778 5775 5771 5767 5764